This is the latest recevied weather packets stored in our database for station/object NY3Q. If no packets are shown the sender has not sent any weather packets the latest 10 day(s).
| Time | Temp. | Humidity | Pressure | Rain* | Wind** | Luminosity | Snow |
|---|---|---|---|---|---|---|---|
| 1777495790 | 33.89° C | 39% | 1010.2 hPa | 0 mm | - | 439 W/m² | - |
| 1777495487 | 33.33° C | 41% | 1010.5 hPa | 0 mm | - | 452 W/m² | - |
| 1777495183 | 33.33° C | 41% | 1010.7 hPa | 0 mm | - | 130 W/m² | - |
| 1777494880 | 33.89° C | 40% | 1010.4 hPa | 0 mm | - | 520 W/m² | - |
| 1777494577 | 34.44° C | 40% | 1010.7 hPa | 0 mm | - | 153 W/m² | - |
| 1777494275 | 33.89° C | 40% | 1010.9 hPa | 0 mm | - | 521 W/m² | - |
| 1777493971 | 33.89° C | 41% | 1011 hPa | 0 mm | - | 222 W/m² | - |
| 1777493669 | 33.89° C | 41% | 1011.1 hPa | 0 mm | - | 536 W/m² | - |
| 1777493366 | 33.33° C | 42% | 1011.3 hPa | 0 mm | - | 532 W/m² | - |
| 1777493062 | 35° C | 40% | 1011.4 hPa | 0 mm | - | 105 W/m² | - |
| 1777492759 | 35° C | 40% | 1011.5 hPa | 0 mm | - | 545 W/m² | - |
| 1777492455 | 35° C | 39% | 1011.8 hPa | 0 mm | - | 550 W/m² | - |
| 1777492152 | 35° C | 39% | 1011.8 hPa | 0 mm | - | 570 W/m² | - |
| 1777491849 | 35.56° C | 39% | 1012 hPa | 0 mm | - | 576 W/m² | - |
| 1777491545 | 35.56° C | 40% | 1011.9 hPa | 0 mm | - | 427 W/m² | - |
| 1777491243 | 35° C | 38% | 1012 hPa | 0 mm | - | 578 W/m² | - |
| 1777490938 | 35° C | 38% | 1012 hPa | 0 mm | - | 580 W/m² | - |
| 1777490634 | 34.44° C | 40% | 1012.2 hPa | 0 mm | - | 604 W/m² | - |
| 1777490330 | 34.44° C | 41% | 1012.2 hPa | 0 mm | - | 596 W/m² | - |
| 1777490029 | 34.44° C | 42% | 1012.2 hPa | 0 mm | - | 600 W/m² | - |
| 1777489726 | 33.89° C | 41% | 1012.3 hPa | 0 mm | - | 624 W/m² | - |
| 1777489423 | 35° C | 41% | 1012.5 hPa | 0 mm | - | 149 W/m² | - |
| 1777489120 | 35° C | 43% | 1012.4 hPa | 0 mm | - | 650 W/m² | - |
| 1777488817 | 34.44° C | 45% | 1012.8 hPa | 0 mm | - | 664 W/m² | - |
| 1777488514 | 34.44° C | 45% | 1012.7 hPa | 0 mm | - | 185 W/m² | - |
* Rain latest hour (hover to see other rain measurements)
** Current wind speed in m/s (hover to see current wind gust speed)